sat.trackr.live / text

‹ back to catalog

GAOFEN-10R

NORAD 44622 · 2019-066A

PAYLOAD ACTIVE UNKNOWN

§ Identity

Operator
Country
PRC
Launch date
2019-10-04
Launch site
TAISC
Launch vehicle
Mass (kg)
RCS (m²)

Purposes: earth_obs

External: N2YO · Heavens-Above · Gunter

§ Orbital elements

Epoch: 2026-05-25T05:07:56.424000Z

Period
97.10 min
Inclination
98.0487°
Eccentricity
0.0004858
Mean motion
14.83000745 rev/d
Perigee alt
616.5 km
Apogee alt
623.3 km
Semi-major
6,998.0 km
B*
1.2757e-4
RAAN
98.6283°
Arg perigee
197.9443°
Mean anomaly
162.1599°
Rev number
35,897

§ Raw data

GAOFEN-10R1 44622U 19066A   26145.21384750  .00000982  00000+0  12757-3 0  99912 44622  98.0487  98.6283 0004858 197.9443 162.1599 14.83000745358971

JSON: /api/v1/satellites/44622 · /tle

For live sub-satellite position, see the globe view (requires WebGL).

§ Visibility from observer

Set your observer location to see the next 7 days of passes ≥ 10°. The values pass through the URL so the page stays shareable.

No JS? Fill the form by hand. The geolocation button needs JavaScript.